Regional Weather Roundup
Issued by NWS

Home | Current Version | Previous Version | Graphics & Text | Print | Product List | Glossary On
Versions: 1 2 3 4 5 6 7 8 9 10 11 12 13 14 15 16 17 18 19 20 21 22 23 24 25 26 27 28 29 30 31 32 33 34 35 36 37 38 39 40 41 42 43 44 45 46 47 48 49 50
000
ASUS45 KCYS 160510
RWRWY

WYOMING REGIONAL WEATHER ROUNDUP
NATIONAL WEATHER SERVICE CHEYENNE WY
1100 PM MDT MON SEP 15 2014

NOTE:  "FAIR" INDICATES FEW OR NO CLOUDS BELOW 12,000 FEET
WITH NO SIGNIFICANT WEATHER AND/OR OBSTRUCTIONS TO VISIBILITY.

WYZ001-160600-
YELLOWSTONE NATIONAL PARK

CITY           SKY/WX    TMP DP  RH WIND       PRES   REMARKS
LK YELLOWSTONE   N/A     39  31  72 CALM      30.35S
W YELLOWSTONE  NOT AVBL

$$
WYZ002>013-054>058-071-098>099-160600-
NORTHERN WYOMING

CITY           SKY/WX    TMP DP  RH WIND       PRES   REMARKS
JACKSON        CLEAR     45  28  53 N8        30.25S
CODY           CLEAR     57  43  58 SW6       30.16S
GREYBULL       CLEAR     57  42  57 CALM      30.08R
WORLAND        CLEAR     55  45  68 S8        30.10R
SHERIDAN       CLEAR     49  43  80 N5        30.10R
BUFFALO        CLEAR     57  39  51 W9        30.15S
GILLETTE       CLEAR     55  44  66 S12       30.11S
HULETT         FAIR      54  41  62 MISG      30.11
NEWCASTLE      FAIR      59  39  47 E8        30.14

$$
WYZ014>020-022>026-101>103-160600-
CENTRAL WYOMING

CITY           SKY/WX    TMP DP  RH WIND       PRES   REMARKS
BIG PINEY      CLEAR     45  28  51 NW6       30.31R
PINEDALE       CLEAR     45  30  57 W5        30.31R
DUBOIS         FAIR      52  28  40 W9        30.29S
LANDER         CLEAR     57  38  48 SW5       30.16R
RIVERTON       CLEAR     60  39  45 NW9       30.16R
CASPER         PTCLDY    49  39  68 N5        30.15R
DOUGLAS        CLEAR     56  43  61 SE9       30.13S

$$
WYZ021-027>030-104>119-160600-
SOUTHERN WYOMING

CITY           SKY/WX    TMP DP  RH WIND       PRES   REMARKS
EVANSTON       CLEAR     58  31  35 SE9       30.31R
KEMMERER       CLEAR    N/A N/A N/A N8        30.32S
FORT BRIDGER   FAIR      60  30  31 W7        30.33S
ROCK SPRINGS   CLEAR     62  34  35 SW5       30.28R
DIXON          FAIR      52  40  65 S6        30.31R
RAWLINS        PTCLDY    63  32  31 SW12      30.26R
SARATOGA       FAIR      52  36  54 E3        30.30R
LARAMIE        PTCLDY    50  41  71 S9        30.30S
CHEYENNE       CLEAR     53  47  79 SW8       30.26F
TORRINGTON     MOCLDY    57  48  72 E10       30.15R
PINE BLUFFS    FAIR      52  48  87 CALM      30.23S

$$


USA.gov is the U.S. government's official web portal to all federal, state and local government web resources and services.